{"data":{"norad_id":50836,"epoch":"2026-09-19T22:01:59.013696Z","epoch_age_seconds":98641,"freshness":"FRESH","line1":"1 50836U 22001AK  26262.91804414  .00000426  00000+0  25485-4 0  9995","line2":"2 50836  53.1610  12.4871 0001062  75.5290 284.5829 15.31703226259688","mean_motion":15.31703226,"eccentricity":0.0001062,"inclination_deg":53.161,"raan_deg":12.4871,"arg_perigee_deg":75.529,"mean_anomaly_deg":284.5829,"bstar":2.5485e-5,"rev_number":25968,"period_min":94.012989955014,"perigee_km":470.00302898877,"apogee_km":471.45772842001,"semimajor_km":6848.8673787044,"source":"CELESTRAK","updated_at":"2026-09-20T09:00:39.580910Z"}}